Regional Weather Roundup
Issued by NWS State College, PA

Home | Current Version | Previous Version | Text Only | Print | Product List | Glossary On
Versions: 1 2 3 4 5 6 7 8 9 10 11 12 13 14 15 16 17 18 19 20 21 22 23 24 25 26 27 28 29 30 31 32 33 34 35 36 37 38 39 40 41 42 43 44 45 46 47 48 49 50
000
ASUS41 KCTP 211403
RWRCTP

REGIONAL WEATHER ROUNDUP
NATIONAL WEATHER SERVICE STATE COLLEGE PA
1000 AM EDT SAT OCT 21 2017

Note: "fair" indicates few or no clouds below 12,000 feet with no
significant weather and/or obstructions to visibility.

* = STATION THAT DOES NOT REPORT PRECIPITATION /E.G. RAIN...SNOW...ETC/
    THUNDER OR FOG.

PAZ002>004-007>009-013>016-020>023-029>032-211500-
WESTERN PENNSYLVANIA

CITY           SKY/WX    TMP DP  RH WIND       PRES   REMARKS
ERIE           MOSUNNY   59  42  53 S8        30.29S
MEADVILLE      MOSUNNY   55  42  61 CALM      30.32S
FRANKLIN*      MOSUNNY   50  40  68 CALM      30.34R
NEW CASTLE     FAIR      50  45  83 CALM      30.33R
BEAVER COUNTY  SUNNY     54  43  66 CALM      30.32R
BUTLER*        CLOUDY    54  44  69 NE3       30.33R
PITTSBURGH INT CLOUDY    53  47  79 CALM      30.31R
PITTSBURGH     CLOUDY    55  42  61 S6        30.31R
INDIANA*       SUNNY     55  46  71 CALM      30.36S HAZE
LATROBE        SUNNY     48  45  87 CALM      30.33S
WASHINGTON CO* CLOUDY    57  48  72 VRB3      30.34R
$$

PAZ004>006-010>012-017>019-024>028-033>037-041-042-045-046-049>053-211500-
CENTRAL PENNSYLVANIA

CITY           SKY/WX    TMP DP  RH WIND       PRES   REMARKS
BRADFORD       CLOUDY    58  41  53 SE3       30.35R
DUBOIS         CLOUDY    56  40  55 E5        30.34R
CLEARFIELD     CLOUDY    49  41  74 E5        30.37S
JOHNSTOWN      CLOUDY    60  39  45 CALM      30.36R
ALTOONA        SUNNY     55  43  63 CALM      30.38R
STATE COLLEGE  SUNNY     50  43  76 CALM      30.38R
WILLIAMSPORT   SUNNY     49  43  80 SW3       30.38S
SELINSGROVE    SUNNY     50  46  86 CALM      30.39S
FT INDIANTOWN  SUNNY     53  46  76 CALM      30.36S
CAPITAL CITY   SUNNY     56  44  64 NW3       30.37S
HARRISBURG     MOSUNNY   55  48  77 NW5       30.36S
YORK           SUNNY     55  48  77 CALM      30.36S
$$

PAZ038>040-043-044-047-048-054-055-060>062-067>071-211500-
EASTERN PENNSYLVANIA

CITY           SKY/WX    TMP DP  RH WIND       PRES   REMARKS
SCRANTON       SUNNY     52  39  61 CALM      30.38R
MOUNT POCONO   SUNNY     64  42  44 CALM      30.37R
ALLENTOWN      SUNNY     55  42  61 CALM      30.37R
QUAKERTOWN*    SUNNY     57  45  62 CALM      30.37S
READING        SUNNY     55  48  77 CALM      30.37R
LANCASTER      SUNNY     55  49  80 CALM      30.37R
COATESVILLE    SUNNY     66  48  52 CALM      30.38R
POTTSTOWN      SUNNY     55  45  68 CALM      30.38R
BLUE BELL      SUNNY     57  46  67 CALM      30.38S
DOYLESTOWN     SUNNY     62  45  53 CALM      30.36R
WILLOW GROVE   NOT AVBL
NORTH PHILA    SUNNY     67  42  40 CALM      30.37R
PHILADELPHIA   MOSUNNY   61  42  49 SW3       30.37R
$$




USA.gov is the U.S. government's official web portal to all federal, state and local government web resources and services.